Regional Weather Roundup
Issued by NWS

Home | Current Version | Previous Version | Text Only | Print | Product List | Glossary Off
Versions: 1 2 3 4 5 6 7 8 9 10 11 12 13 14 15 16 17 18 19 20 21 22 23 24 25 26 27 28 29 30 31 32 33 34 35 36 37 38 39 40 41 42 43 44 45 46 47 48 49 50

000
ASUS43 KMKX 310700
RWRWI

WISCONSIN REGIONAL WEATHER ROUNDUP
NATIONAL WEATHER SERVICE MILWAUKEE/SULLIVAN WI
200 AM CDT FRI JUL 31 2015

NOTE: "FAIR" INDICATES FEW OR NO CLOUDS BELOW 12,000 FEET WITH NO
SIGNIFICANT WEATHER AND/OR OBSTRUCTIONS TO VISIBILITY.

WIZ001-002-006>008-014>016-023>028-310800-
NORTHWEST WISCONSIN

CITY           SKY/WX    TMP DP  RH WIND       PRES   REMARKS
SUPERIOR ARPT  MOCLDY    65  57  75 W8        29.91S
ASHLAND        CLEAR     63  56  78 SW7       29.90F
HAYWARD        PTCLDY    59  55  87 S5        29.96S
SIREN          CLEAR     65  56  73 W7        29.98S
CUMBERLAND     CLEAR     61  55  82 W6        29.99S
RICE LAKE      CLEAR     64  57  80 W6        30.00S
CHETEK         CLEAR     68  58  69 W5        29.99S
LADYSMITH      CLEAR     66  57  74 W7        29.99S
EAU CLAIRE     NOT AVBL
MENOMONIE      CLEAR     69  58  68 W6        30.00S
NEW RICHMOND   CLEAR     66  57  74 W7        30.01F
OSCEOLA        CLEAR     65  58  77 W6        30.03S
$$

WIZ003>005-009-010-017-018-310800-
NORTH CENTRAL WISCONSIN

CITY           SKY/WX    TMP DP  RH WIND       PRES   REMARKS
MANITOWISH WTR CLEAR     60  56  85 W3        29.93S
ARBOR VITAE    CLEAR     64  56  75 W5        29.93F
WOODRUFF       CLEAR     64  56  75 W5        29.93F
RHINELANDER    CLEAR     60  55  83 W8        29.95F
EAGLE RIVER    CLEAR     57  56  96 W7        29.92F
LAND O LAKES   CLEAR     59  55  85 W3        29.93S
PHILLIPS       CLEAR     62  57  82 W6        29.96S
TOMAHAWK       PTCLDY    59  55  88 W3        29.96F
MEDFORD        CLEAR     63  57  80 W6        29.99S
MERRILL        NOT AVBL
$$

WIZ029-030-035-036-043>047-310800-
CENTRAL WISCONSIN

CITY           SKY/WX    TMP DP  RH WIND       PRES   REMARKS
WAUSAU         CLEAR     67  57  70 NW10      29.95F
MOSINEE        CLEAR     63  57  82 W6        29.98F
MARSHFIELD     CLEAR     64  56  75 W6        29.99S
STEVENS POINT  CLEAR     66  57  72 W7        29.98S
WAUPACA        CLEAR     69  58  68 W7        29.96F
WAUTOMA        NOT AVBL
WISC RAPIDS    CLEAR     67  57  70 W8        29.99F
CAMP DOUGLAS   NOT AVBL
$$

WIZ011>013-019>022-031-037>040-048>050-310800-
NORTHEAST WISCONSIN

CITY           SKY/WX    TMP DP  RH WIND       PRES   REMARKS
ANTIGO         CLEAR     60  56  89 W5        29.96F
SHAWANO        CLEAR     68  58  69 W5        29.94S
OCONTO         CLEAR     65  59  81 W8        29.91S
STURGEON BAY   CLEAR     70  57  64 W9        29.93S
GREEN BAY      CLEAR     66  57  72 SW5       29.93F
MANITOWOC      NOT AVBL
APPLETON       CLEAR     63  54  72 W7        29.96F
CLINTONVILLE   CLEAR     64  55  72 W5        29.94F
OSHKOSH        CLEAR     68  57  68 W3        29.96F
$$

WIZ032>034-041-042-053>061-310800-
SOUTHWEST WISCONSIN

CITY           SKY/WX    TMP DP  RH WIND       PRES   REMARKS
LA CROSSE      PTCLDY    68  61  78 SE5       30.01R
SPARTA         CLEAR     58  56  91 CALM      30.02S
VIROQUA        PTCLDY    64  58  83 SW5       30.04F
BOSCOBEL       CLEAR     61  59  93 CALM      30.03F
PRAIRIE DU CHI CLEAR     63  59  87 E3        30.04S
PLATTEVILLE    CLEAR     64  60  86 SW7       30.06S
$$

WIZ056-057-062-063-064-067-068-310800-
SOUTH CENTRAL WISCONSIN

CITY           SKY/WX    TMP DP  RH WIND       PRES   REMARKS
REEDSBURG      PTCLDY    67  58  72 CALM      30.02S
BARABOO/DELLS  PTCLDY    65  55  70 SW6       30.02S
LONE ROCK      NOT AVBL
MINERAL POINT  CLEAR     64  59  82 W5        30.06S
MADISON        CLEAR     70  57  63 VRB5      30.02S
MIDDLETON      CLEAR     65  57  75 W6        30.03F
WATERTOWN      CLEAR     64  58  81 CALM      30.01S
MONROE         CLEAR     66  59  77 W10       30.05S
JANESVILLE     CLEAR     64  55  72 CALM      30.03S
$$

WIZ051-052-058>065-066-070>072-310800-
SOUTHEAST WISCONSIN

CITY           SKY/WX    TMP DP  RH WIND       PRES   REMARKS
MILWAUKEE      CLEAR     73  55  53 W6        29.99F
WAUKESHA       CLEAR     68  54  60 W8        30.02S
MILWAUKEE/TIMM CLEAR     68  54  60 W7        30.00F
RACINE         CLEAR     69  56  62 W7        30.02S
BURLINGTON     CLEAR     64  55  70 W5        30.02S
KENOSHA        CLEAR     65  57  75 W8        30.02S
FOND DU LAC    CLEAR     68  57  68 W9        29.98S
SHEBOYGAN      CLEAR     65  58  78 W6        29.96F
WEST BEND      CLEAR     70  54  56 CALM      29.99S
JUNEAU         CLEAR     65  56  74 W7        30.02S
$$

LSZ147-162-310800-
LAKE SUPERIOR

STATION/POSITION TIME  TEMP    WIND        PRES    WAVE
                       AIR SEA DIR/SP/G            HT/PER
                 (UTC) (F)     (DEG/KT/KT) (MB)    (FT/S)
W MID LAKE BUOY  0550   58 53  210/  8/ 10 1010.4F   1
DEVILS ISLAND    0600   61     260/ 14/ 16 1011.6R
PORT WING        0600   68     210/  8/ 10 1012.5S
SAXON HARBOR     0600   69                 1011.9
$$

LMZ867-665-643>646-310800-
LAKE MICHIGAN

STATION/POSITION TIME  TEMP    WIND        PRES    WAVE
                       AIR SEA DIR/SP/G            HT/PER
                 (UTC) (F)     (DEG/KT/KT) (MB)    (FT/S)
CHAMBERS ISLAND  0600   67     200/  5/ 10 1012.2S
S GREEN BAY BUOY 0600   69 72  240/ 12/ 16 1014.3F
N MID LAKE BUOY  0550   70 69  240/ 12/ 16 1010.8F   1/ 3
NORTHPORT PIER   0600   71     230/  6/ 11 1011.9S
SISTER BAY       0644   71     280/ 16/ 18   N/A
ALGOMA LAKESHORE 0642          260/  4/  8   N/A
KEWAUNEE LAKESHO 0600   67     300/  4/  6 1012.8F
SHEBOYGAN LAKESH 0600   71     250/  9/ 11 1014.6F
PORT WASHINGTON  0600   74     280/  5/  7 1015.6S
ATWATER BUOY     0600   72 63  260/  8/ 10 1016.8R
MILWAUKEE LAKESH 0600   74     270/  9/ 12   N/A
KENOSHA   LAKESH 0600   72     270/ 10/ 12 1015.6R
$$

TC  - TEMPERATURE IN CELSIUS
VSB - VISIBILITY IN STATUTE MILES
WCI - WIND CHILL INDEX
HX  - HEAT INDEX




USA.gov is the U.S. government's official web portal to all federal, state and local government web resources and services.